GW4477 Weather Reports


time (UTC)temp
F
wind
direction
speed
knots
gust
knots
rain 1hr
in
rain 24hr
in
rain mn
in
humidity
%
barometer
mb
20260508234505 75 28 6.1 10.4 0.00 0.00 0.00 29 1012.5
20260508233008 76 17 2.6 5.2 0.00 0.00 0.00 29 1012.4
20260508231518 76 24 6.1 11.3 0.00 0.00 0.00 29 1012.2
20260508230035 77 23 3.5 8.7 0.00 0.00 0.00 29 1012.2
20260508224522 77 22 2.6 8.7 0.00 0.00 0.00 30 1012.3
20260508223011 76 352 4.3 8.7 0.00 0.00 0.00 30 1012.3
20260508221514 76 18 4.3 8.7 0.00 0.00 0.00 30 1012.5
20260508220019 75 344 5.2 9.6 0.00 0.00 0.00 32 1012.6
20260508214526 75 347 5.2 9.6 0.00 0.00 0.00 33 1012.5
20260508213024 76 17 4.3 10.4 0.00 0.00 0.00 32 1012.7
20260508211516 76 22 6.1 12.2 0.00 0.00 0.00 32 1012.7
20260508210029 77 348 7.0 13.9 0.00 0.00 0.00 32 1012.8
20260508204522 77 315 7.0 13.0 0.00 0.00 0.00 32 1013.0
20260508203025 76 17 5.2 13.0 0.00 0.00 0.00 32 1013.0
20260508201510 76 352 7.0 13.0 0.00 0.00 0.00 33 1013.0
20260508200017 76 352 7.8 12.2 0.00 0.00 0.00 34 1013.1
20260508194521 76 325 7.8 14.8 0.00 0.00 0.00 34 1013.1
20260508193023 75 350 6.1 13.9 0.00 0.00 0.00 36 1013.3
20260508191527 75 342 6.1 13.9 0.00 0.00 0.00 36 1013.1
20260508190012 75 352 6.1 11.3 0.00 0.00 0.00 35 1013.2
20260508184535 74 17 7.8 17.4 0.00 0.00 0.00 35 1013.3
20260508183028 73 19 7.0 13.0 0.00 0.00 0.00 36 1013.4
20260508181542 73 352 7.0 13.9 0.00 0.00 0.00 37 1013.5
20260508180026 72 328 7.0 15.6 0.00 0.00 0.00 40 1013.4
20260508174506 73 306 8.7 13.0 0.00 0.00 0.00 40 1013.6
20260508173003 72 352 9.6 13.9 0.00 0.00 0.00 41 1013.7
20260508171505 71 360 7.8 15.6 0.00 0.00 0.00 42 1013.7
20260508170015 71 352 7.8 14.8 0.00 0.00 0.00 44 1013.8
20260508164516 71 342 6.1 14.8 0.00 0.00 0.00 44 1013.8
20260508163003 70 316 5.2 13.0 0.00 0.00 0.00 47 1013.9
20260508161505 69 329 7.8 13.9 0.00 0.00 0.00 48 1013.9
20260508160013 68 44 7.0 13.9 0.00 0.00 0.00 50 1013.9
20260508154514 67 9 8.7 13.9 0.00 0.00 0.00 52 1013.8
20260508153004 67 18 6.1 13.0 0.00 0.00 0.00 54 1013.8
20260508151510 66 346 6.1 13.0 0.00 0.00 0.00 53 1013.6
20260508150011 66 340 4.3 13.0 0.00 0.00 0.00 54 1013.7
20260508144529 65 310 6.1 13.0 0.00 0.00 0.00 55 1013.6
20260508143018 64 336 5.2 9.6 0.00 0.00 0.00 60 1013.6
20260508141504 62 360 5.2 9.6 0.00 0.00 0.00 61 1013.4
20260508140010 60 9 4.3 7.8 0.00 0.00 0.00 65 1013.3
20260508134514 57 326 1.7 3.5 0.00 0.00 0.00 68 1013.3
20260508133023 56 333 0.9 4.3 0.00 0.00 0.00 69 1013.2
20260508131521 54 336 2.6 7.0 0.00 0.00 0.00 77 1013.0
20260508130004 49 352 1.7 2.6 0.00 0.00 0.00 84 1012.4
20260508124507 47 285 0.0 0.0 0.00 0.00 0.00 83 1012.1
20260508123014 46 285 0.0 0.9 0.00 0.00 0.00 82 1011.7
20260508121520 46 285 0.0 0.0 0.00 0.00 0.00 80 1011.6
20260508120026 46 285 0.0 0.0 0.00 0.00 0.00 79 1011.5
20260508114510 47 285 0.0 1.7 0.00 0.00 0.00 77 1012.0
20260508113012 48 285 0.0 1.7 0.00 0.00 0.00 76 1011.6
20260508111519 49 285 0.0 0.0 0.00 0.00 0.00 73 1011.8
20260508110042 49 285 0.0 1.7 0.00 0.00 0.00 73 1011.6
20260508104524 47 285 0.0 1.7 0.00 0.00 0.00 76 1011.3
20260508103011 47 285 0.0 1.7 0.00 0.00 0.00 76 1011.8
20260508101518 47 285 0.0 1.7 0.00 0.00 0.00 75 1011.9
20260508100022 47 188 0.0 2.6 0.00 0.00 0.00 74 1011.8
20260508094523 47 243 0.0 0.0 0.00 0.00 0.00 74 1011.7
20260508093034 48 243 0.0 0.9 0.00 0.00 0.00 71 1011.5
20260508091514 49 336 0.0 5.2 0.00 0.00 0.00 70 1011.8
20260508090025 46 336 2.6 7.8 0.00 0.00 0.00 75 1012.1
20260508084504 45 246 0.0 1.7 0.00 0.00 0.00 73 1011.3
20260508083008 46 246 0.0 1.7 0.00 0.00 0.00 72 1011.1
20260508081510 46 246 0.0 2.6 0.00 0.01 0.00 73 1011.2
20260508080015 46 336 0.0 0.0 0.00 0.01 0.00 72 1011.2
20260508074512 46 336 0.0 0.0 0.00 0.01 0.00 70 1011.3
20260508073004 48 336 0.0 1.7 0.00 0.01 0.00 67 1011.5
20260508071510 50 248 0.0 1.7 0.00 0.01 0.00 63 1011.6
20260508070014 50 221 0.0 4.3 0.00 0.01 0.00 61 1011.6
20260508064517 52 209 1.7 5.2 0.00 0.01 0.00 59 1011.6
20260508063005 53 232 1.7 4.3 0.00 0.01 0.00 57 1011.7
20260508061506 53 188 1.7 4.3 0.00 0.01 0.00 56 1011.7
20260508060010 54 194 2.6 4.3 0.00 0.01 0.00 55 1011.7
20260508054517 54 203 2.6 4.3 0.00 0.01 0.00 54 1011.8
20260508053041 55 196 1.7 6.1 0.00 0.01 0.00 52 1011.9
20260508051508 56 204 3.5 6.1 0.00 0.01 0.00 52 1011.9
20260508050008 56 215 3.5 7.8 0.00 0.01 0.00 53 1012.1
20260508044516 57 213 4.3 7.8 0.00 0.01 0.01 52 1012.4
20260508043023 58 192 3.5 7.8 0.00 0.01 0.01 50 1012.4
20260508041547 58 206 3.5 7.0 0.00 0.01 0.01 49 1012.5
20260508040008 58 193 3.5 7.0 0.00 0.01 0.01 47 1012.8
20260508034512 56 209 1.7 3.5 0.00 0.01 0.01 48 1012.8
20260508033020 57 202 0.9 3.5 0.00 0.01 0.01 49 1012.8
20260508031521 57 190 0.9 2.6 0.00 0.01 0.01 49 1012.6
20260508030032 58 187 0.9 2.6 0.00 0.01 0.01 1012.5
20260508024510 60 191 1.7 2.6 0.00 0.01 0.01 44 1012.4
20260508023020 62 195 0.0 1.7 0.00 0.01 0.01 42 1012.1
20260508021521 62 197 0.0 1.7 0.00 0.01 0.01 42 1012.0
20260508020030 64 197 0.0 1.7 0.00 0.01 0.01 40 1011.9
20260508014525 67 199 0.9 1.7 0.00 0.01 0.01 38 1011.6
20260508013012 69 274 0.0 1.7 0.00 0.01 0.01 37 1011.6
20260508011520 71 300 0.0 1.7 0.00 0.01 0.01 34 1011.7
20260508010024 73 300 0.0 1.7 0.00 0.01 0.01 27 1011.7
20260508004523 74 347 0.0 1.7 0.00 0.01 0.01 24 1011.7
20260508003024 76 330 0.0 1.7 0.00 0.01 0.01 23 1011.7
20260508001520 77 326 0.9 4.3 0.00 0.01 0.01 20 1011.6
20260508000023 78 315 0.9 4.3 0.00 0.02 0.01 21 1011.5